TimePDT,TemperatureF,Dew PointF,Humidity,Sea Level PressureIn,VisibilityMPH,Wind Direction,Wind SpeedMPH,Gust SpeedMPH,PrecipitationIn,Events,Conditions,WindDirDegrees,DateUTC
12:54 AM,54.0,19.9,26,29.96,10.0,Calm,Calm,-,N/A,,Clear,0,2014-05-01 07:54:00
1:54 AM,51.1,21.0,31,29.96,9.0,East,3.5,-,N/A,,Clear,100,2014-05-01 08:54:00
2:54 AM,50.0,21.9,33,29.97,10.0,Calm,Calm,-,N/A,,Clear,0,2014-05-01 09:54:00
3:54 AM,51.1,23.0,33,29.97,10.0,North,3.5,-,N/A,,Clear,10,2014-05-01 10:54:00
4:54 AM,51.1,21.9,32,29.99,10.0,Calm,Calm,-,N/A,,Clear,0,2014-05-01 11:54:00
5:54 AM,59.0,19.0,21,30.00,9.0,NE,8.1,-,N/A,,Clear,40,2014-05-01 12:54:00
6:54 AM,61.0,21.0,21,30.03,6.0,NE,5.8,-,N/A,,Haze,40,2014-05-01 13:54:00
7:54 AM,70.0,21.9,16,30.04,7.0,ENE,6.9,-,N/A,,Partly Cloudy,60,2014-05-01 14:54:00
8:54 AM,82.0,18.0,9,30.03,9.0,NE,6.9,-,N/A,,Scattered Clouds,50,2014-05-01 15:54:00
9:54 AM,87.1,8.1,5,30.03,9.0,ENE,10.4,-,N/A,,Scattered Clouds,60,2014-05-01 16:54:00
10:54 AM,90.0,5.0,4,30.02,8.0,NNE,15.0,20.7,N/A,,Scattered Clouds,30,2014-05-01 17:54:00
11:54 AM,93.0,3.9,4,30.00,7.0,NE,12.7,26.5,N/A,,Scattered Clouds,50,2014-05-01 18:54:00
12:54 PM,95.0,3.9,4,29.97,8.0,ENE,10.4,-,N/A,,Clear,60,2014-05-01 19:54:00
1:54 PM,96.1,3.9,4,29.96,8.0,Variable,6.9,-,N/A,,Scattered Clouds,0,2014-05-01 20:54:00
2:54 PM,91.9,16.0,6,29.95,8.0,WSW,12.7,-,N/A,,Scattered Clouds,240,2014-05-01 21:54:00
3:54 PM,89.1,16.0,7,29.94,8.0,West,10.4,23.0,N/A,,Scattered Clouds,270,2014-05-01 22:54:00
4:54 PM,87.1,21.9,9,29.93,8.0,WSW,8.1,-,N/A,,Scattered Clouds,250,2014-05-01 23:54:00
5:54 PM,86.0,21.0,9,29.92,8.0,WSW,8.1,-,N/A,,Scattered Clouds,240,2014-05-02 00:54:00
6:54 PM,82.0,24.1,12,29.92,8.0,SSW,5.8,-,N/A,,Scattered Clouds,200,2014-05-02 01:54:00
7:54 PM,82.0,15.1,8,29.94,10.0,NW,6.9,-,N/A,,Scattered Clouds,310,2014-05-02 02:54:00
8:54 PM,73.9,23.0,15,29.97,9.0,Calm,Calm,-,N/A,,Partly Cloudy,0,2014-05-02 03:54:00
9:54 PM,66.0,27.0,23,29.99,9.0,Calm,Calm,-,N/A,,Partly Cloudy,0,2014-05-02 04:54:00
10:54 PM,62.1,28.9,29,29.99,10.0,ENE,3.5,-,N/A,,Partly Cloudy,60,2014-05-02 05:54:00
11:54 PM,60.1,28.9,31,29.99,8.0,NE,3.5,-,N/A,,Partly Cloudy,40,2014-05-02 06:54:00